﻿"﻿最低氣溫 (攝氏度) - �M���W"
"Minimum Temperature (°C) - Clear Water Bay"
年/Year,月/Month,日/Day,數值/Value,"數據完整性/data Completeness"
2024,1,1,17.8,C
2024,1,2,16.5,C
2024,1,3,13.6,C
2024,1,4,13.7,C
2024,1,5,15.6,C
2024,1,6,16.3,C
2024,1,7,17.9,C
2024,1,8,17.0,C
2024,1,9,17.2,C
2024,1,10,16.6,C
2024,1,11,16.4,C
2024,1,12,16.2,C
2024,1,13,16.8,C
2024,1,14,17.9,C
2024,1,15,17.4,C
2024,1,16,16.5,C
2024,1,17,16.9,C
2024,1,18,18.4,C
2024,1,19,18.0,C
2024,1,20,18.4,C
2024,1,21,14.1,C
2024,1,22,7.7,C
2024,1,23,4.7,C
2024,1,24,5.1,C
2024,1,25,7.3,C
2024,1,26,11.8,#
2024,1,27,11.6,C
2024,1,28,10.3,C
2024,1,29,13.1,C
2024,1,30,15.9,C
2024,1,31,16.9,C
2024,2,1,18.3,#
2024,2,2,17.6,C
2024,2,3,16.5,C
2024,2,4,17.5,C
2024,2,5,17.8,C
2024,2,6,17.0,C
2024,2,7,12.3,#
2024,2,8,10.2,C
2024,2,9,9.7,C
2024,2,10,10.3,C
2024,2,11,13.3,C
2024,2,12,15.8,C
2024,2,13,16.1,C
2024,2,14,17.6,C
2024,2,15,18.5,C
2024,2,16,17.8,C
2024,2,17,16.9,C
2024,2,18,18.1,C
2024,2,19,19.9,C
2024,2,20,21.1,C
2024,2,21,21.3,C
2024,2,22,20.9,C
2024,2,23,16.9,C
2024,2,24,15.0,C
2024,2,25,13.7,C
2024,2,26,14.7,C
2024,2,27,13.9,#
2024,2,28,16.7,C
2024,2,29,14.1,C
2024,3,1,8.9,C
2024,3,2,8.4,C
2024,3,3,13.0,C
2024,3,4,16.5,C
2024,3,5,21.3,C
2024,3,6,18.4,C
2024,3,7,15.1,C
2024,3,8,13.6,C
2024,3,9,13.8,C
2024,3,10,14.4,C
2024,3,11,15.4,C
2024,3,12,15.0,C
2024,3,13,17.7,C
2024,3,14,17.7,C
2024,3,15,18.5,C
2024,3,16,18.5,C
2024,3,17,20.0,C
2024,3,18,18.5,C
2024,3,19,17.2,C
2024,3,20,16.9,C
2024,3,21,17.7,C
2024,3,22,19.0,C
2024,3,23,20.8,C
2024,3,24,22.6,C
2024,3,25,22.4,C
2024,3,26,22.0,C
2024,3,27,19.3,C
2024,3,28,20.8,C
2024,3,29,21.8,C
2024,3,30,22.6,C
2024,3,31,23.9,C
"*** 沒有數據/unavailable"
"# 數據不完整/data incomplete"
"C 數據完整/data Complete"
